User: anonymous   Login
Location: Unspecified
(0.0000°N, 0.0000°E)
Time: 11:29:51
(UTC+00:00)
Language:

Galileo 6 - Orbit

View from above orbital plane
View from above orbital plane
View from above satellite
View from above satellite

Ground track
Ground track

The orbit data is extracted from the following two-line orbital elements,

1 40129U 14050B   22273.03579220 -.00000060  00000-0  00000-0 0  9997
2 40129  50.2347 327.1787 1617346 128.6628 246.9701  1.85519759 55329
Epoch (UTC): 30 September 2022 00:51:32
Eccentricity: 0.1617346
inclination: 50.2347°
perigee height: 17074 km
apogee height: 26124 km
right ascension of ascending node: 327.1787°
argument of perigee: 128.6628°
revolutions per day: 1.85519759
mean anomaly at epoch: 246.9701°
orbit number at epoch: 5532

The dashed part of the orbit path shows where the satellite is in the earth's shadow,  

DLR